Regional Weather Roundup
Issued by NWS

Home | Current Version | Previous Version | Text Only | Print | Product List | Glossary On
Versions: 1 2 3 4 5 6 7 8 9 10 11 12 13 14 15 16 17 18 19 20 21 22 23 24 25 26 27
000
ASUS42 KTBW 241010
RWRFL
FLORIDA REGIONAL WEATHER ROUNDUP
NATIONAL WEATHER SERVICE TAMPA BAY RUSKIN FL
600 AM EDT THU APR 24 2014

NOTE: "FAIR" INDICATES FEW OR NO CLOUDS BELOW 12,000 FEET WITH NO
SIGNIFICANT WEATHER AND/OR OBSTRUCTIONS TO VISIBILITY.


FLZ001>010-012>015-112-114-115-241100-
PANHANDLE FLORIDA

CITY           SKY/WX    TMP DP  RH WIND       PRES   REMARKS
PENSACOLA      CLOUDY    68  65  90 W5        29.93S
PENSACOLA NAS  FOG       64  64 100 CALM      29.92S VSB 3/4
MILTON NAS     FOG       61  59  93 CALM      29.93S VSB 1/2
CRESTVIEW      FOG       63  63 100 S3        29.95S VSB 1/4
DUKE FIELD     FOG       65  65 100 S3        29.94S VSB 1/4
VALPARAISO     FOG       63  63 100 CALM      29.94S VSB 1/4
MARY ESTHER    HAZE      62  57  86 CALM      29.92F VSB 1/2
PANAMA CITY    CLOUDY    66  63  90 CALM      29.94R FOG
TYNDALL AFB    FOG       63  63 100 CALM      29.95R VSB 1/4
APALACHICOLA   FOG       63  60  90 CALM      29.94S VSB 1/4

STATION/POSITION SKY/WX   TEMP    WIND        PRES    WAVE   SWELL
                          AIR SEA DIR/SP/G            HT/PER HT/PER
                          (F)     (DEG/KT/KT) (MB)    (FT/S) (FT/S)
30.1N   87.6W              68 71  200/  4/  6 1013.4F   1
29.2N   88.2W              69 71  220/  6/  8 1013.6S
28.8N   86.0W              69 71   50/  2/  4 1014.4R   1/ 4
PANAMA CITY BEAC           68 66  270/  4/  5 1013.8R
CAPE SAN BLAS    NOT AVBL
TOWER C                    67     280/  5/  5 1014.1R
28.5N   84.5W              69 70   CALM  /  2 1014.0R   1/ 4

$$
FLZ011-016>038-118-127-128-134-139-239-241100-
NORTH FLORIDA

CITY           SKY/WX    TMP DP  RH WIND       PRES   REMARKS
MARIANNA       CLOUDY    64  64 100 CALM      29.94R
TALLAHASSEE    FOG       62  59  90 CALM      29.95R VSB 1
PERRY          FOG       63  63 100 CALM      29.95R VSB 1/4
CROSS CITY       N/A     63  63 100 CALM      29.94S
GAINESVILLE    CLOUDY    65  64  97 CALM      29.95S FOG
MAYPORT NAS    PTCLDY    63  61  93 S3        29.94R FOG
JACKSONVILLE   PTCLDY    63  62  97 CALM      29.93S FOG
JAX NAS        PTCLDY    67  63  87 S5        29.95R
JAX CRAIG      PTCLDY    64  60  87 CALM      29.94R
JAX CECIL      FOG       61  61 100 S3        29.95R VSB<1/4
FERNANDINA BEA FAIR      64  63  94 CALM      29.92S
ST AUGUSTINE   PTCLDY    64  63  96 SW5       29.95S

STATION/POSITION SKY/WX   TEMP    WIND        PRES    WAVE   SWELL
                          AIR SEA DIR/SP/G            HT/PER HT/PER
                          (F)     (DEG/KT/KT) (MB)    (FT/S) (FT/S)
SHELL POINT                66     290/  3/  5 1012.6R
KEATON BEACH               69     340/  2/  3 1014.1R
CEDAR KEY                  69     310/  2/  3 1014.6R
FERNANDINA                 66 66  290/  2/  2 1013.0R
30.7N   81.3W                 67                N/A     1/ 8
MAYPORT                    65 66  210/  2/  2   N/A
31.4N   80.9W              68 67  200/  6/  6 1013.5R   1/ 9   2/ 9
ST AUGUSTINE               65     250/  4/  5 1014.6R

$$
FLZ040-043>046-052-053-057-058-063-144-241100-
INTERIOR CENTRAL FLORIDA

CITY           SKY/WX    TMP DP  RH WIND       PRES   REMARKS
OCALA          CLOUDY    63  57  82 CALM      29.97R
THE VILLAGES     N/A     63  63 100 CALM      29.96R FOG
LEESBURG       FOG       66  65  96 CALM      29.96S VSB 3/4
SANFORD        CLEAR     66  63  90 CALM      29.96R
ORLANDO EXEC   CLEAR     68  64  87 N3        29.96R
ORLANDO INTL   CLEAR     66  63  90 CALM      29.96R
WINTER HAVEN     N/A    N/A N/A N/A MISG      29.96S
LAKELAND       CLOUDY    64  64 100 CALM      29.96R
BARTOW         FAIR      61  61 100 CALM      29.96S
OKEECHOBEE     CLEAR     59  59 100 CALM      29.96R

$$
FLZ041-047-054-059-064-141-147-241100-
EAST CENTRAL FLORIDA

CITY           SKY/WX    TMP DP  RH WIND       PRES   REMARKS
DAYTONA BEACH  CLEAR     63  62  97 CALM      29.95S FOG
DELAND         SUNNY     64  63  94 CALM      29.96R
JFK SPACE CTR  CLEAR     60  58  96 N2        29.95R
CAPE CANAVERAL CLEAR     62  61  96 S1        29.94R
PATRICK AFB    CLEAR     69  66  90 NW2       29.95R
MELBOURNE      CLEAR     65  63  93 CALM      29.94S
VERO BEACH     CLEAR     63  63 100 CALM      29.94S FOG
FT PIERCE      FOG       63  61  93 CALM      29.95R VSB 1/4
STUART         CLEAR     63  63 100 CALM      29.96R

STATION/POSITION SKY/WX   TEMP    WIND        PRES    WAVE   SWELL
                          AIR SEA DIR/SP/G            HT/PER HT/PER
                          (F)     (DEG/KT/KT) (MB)    (FT/S) (FT/S)
28.5N   80.2W              74 78  220/  8/ 10 1014.0S
28.9N   78.5W              73 75   CALM  /  4 1014.5R   2/ 8   2/ 8
TRIDENT PIER               67 75   CALM  /  1 1013.4R
28.4N   80.5W                 72                N/A     1/ 8
27.6N   80.2W                 73                N/A     2/ 8

$$
FLZ050-056-061-142-242-148-248-149-249-151-251-155-255-
160-260-241100-
WEST CENTRAL FLORIDA

CITY           SKY/WX    TMP DP  RH WIND       PRES   REMARKS
CRYSTAL RIVER  FOG       59  55  88 CALM      29.95S VSB 1/2
INVERNESS      FOG       61  59  94 CALM      29.96S VSB<1/4
BROOKSVILLE    LGT RAIN  58  57  97 CALM      29.96S VSB 1/4
CLEARWATER     MOCLDY    64  61  90 CALM      29.95S FOG
TAMPA INTL     PTCLDY    66  63  90 CALM      29.96S FOG
TAMPA EXEC       N/A     61  59  94 CALM      29.96S FOG
PLANT CITY     PTCLDY    61 N/A N/A CALM      29.97S FOG
MACDILL AFB    CLEAR     63  63 100 NE5       29.95S FOG
PETER O KNIGHT CLOUDY    66  64  94 CALM      29.96S FOG
ST PETERSBURG  CLEAR     69  66  90 N3        29.93F
SARASOTA       CLEAR     63  62  97 CALM      29.95R FOG
VENICE         FAIR      64  63  94 E3        29.97R FOG

STATION/POSITION SKY/WX   TEMP    WIND        PRES    WAVE   SWELL
                          AIR SEA DIR/SP/G            HT/PER HT/PER
                          (F)     (DEG/KT/KT) (MB)    (FT/S) (FT/S)
CEDAR KEY                  69     310/  2/  3 1014.6R
28.5N   84.5W              69 70   CALM  /  2 1014.0R   1/ 4
27.3N   84.3W                 73                N/A     1
CLEARWATER BEACH           69 73  350/  4/  5 1013.6R
MIDDLE TAMPA BAY           69      10/  5/  7 1014.3S
VENICE                     65 73   60/  5/  6 1014.0R

$$
FLZ066-069-070-075>078-162-262-165-265-241100-
SOUTHWEST FLORIDA AND KEYS

CITY           SKY/WX    TMP DP  RH WIND       PRES   REMARKS
PUNTA GORDA    FOG       60  59  96 CALM      29.97S VSB 1/4
FT MYERS       CLEAR     64  62  93 CALM      29.95R FOG
SOUTHWEST INTL CLEAR     61  59  93 CALM      29.96R
NAPLES         CLEAR     64  63  96 NE5       29.96R
MARATHON       PTCLDY    70  66  87 CALM      29.96R
KEY WEST NAS   CLEAR     71  66  84 NE3       29.96S
KEY WEST INTL  CLEAR     71  65  81 CALM      29.97R

STATION/POSITION SKY/WX   TEMP    WIND        PRES    WAVE   SWELL
                          AIR SEA DIR/SP/G            HT/PER HT/PER
                          (F)     (DEG/KT/KT) (MB)    (FT/S) (FT/S)
VENICE                     65 73   60/  5/  6 1014.0R
NAPLES                     66 77   70/  5/  7 1014.6R
26.0N   85.6W              76 80  140/  8/ 10 1013.3F   1/ 8   2/ 8
DRY TORTUGAS     NOT AVBL
NW FL BAY                  73      70/  5/  6 1014.5R
SOMBRERO KEY               74      60/  5/  5 1015.2R
LONG KEY                   73 79   30/  4/  6 1015.5R
MOLASSES REEF              72 78  350/  5/  7 1014.8R

$$
FLZ067-068-071>074-168-172>174-241100-
SOUTHEAST FLORIDA

CITY           SKY/WX    TMP DP  RH WIND       PRES   REMARKS
W PALM BEACH   PTCLDY    67  61  81 CALM      29.94R
FT LAUDER-EXEC CLEAR     67  62  84 CALM      29.94R
FT LAUDERDALE  PTCLDY    69  62  78 W3        29.94R
POMPANO BEACH  CLEAR     69  62  78 CALM      29.94R
PEMBROKE PINES CLEAR     68  62  81 CALM      29.96R
OPA LOCKA      CLEAR     67  61  81 SW3       29.96R
MIAMI          PTCLDY    69  61  75 CALM      29.96R
WEST KENDALL   CLEAR     61  61 100 W5        29.96S FOG
HOMESTEAD      CLEAR     63  57  82 SW2       29.96R

STATION/POSITION SKY/WX   TEMP    WIND        PRES    WAVE   SWELL
                          AIR SEA DIR/SP/G            HT/PER HT/PER
                          (F)     (DEG/KT/KT) (MB)    (FT/S) (FT/S)
PORT EVERGLADES            70     290/  4/  6 1013.9
VIRGINIA KEY               71 79  350/  2/  5 1014.3R
LAKE WORTH                 70 79  310/  5/  6 1013.5R
FOWEY ROCKS                73 77  360/  4/  5 1014.4R
SETTLEMENT POINT           74     130/  5/  5 1014.7R

$$




USA.gov is the U.S. government's official web portal to all federal, state and local government web resources and services.